Location: Alta
(39.2070°N, 120.8111°W)
Time: 08:08:03
(UTC+00:00)

ITAMSAT 1 - Pass Details

Date: 03 June 2024
Orbit: 781 x 796 km, 98.8° (Epoch: 20 June)

Event Time Altitude Azimuth Distance (km) Brightness Sun altitude
Exits shadow 04:26:44 - 162° (SSE) 2,422 9.7 -10.6°
Reaches altitude 10° 04:26:56 10° 162° (SSE) 2,342 9.6 -10.6°
Maximum altitude 04:32:07 82° 75° (ENE) 798 7.6 -11.4°
Drops below altitude 10° 04:37:18 10° 348° (NNW) 2,349 11.0 -12.1°
Sets 04:39:37 0° 348° (NNW) 3,280 11.8 -12.4°
